Regional Weather Roundup
Issued by NWS Newport/Morehead, NC

Home | Current Version | Previous Version | Text Only | Print | Product List | Glossary On
Versions: 1 2 3 4 5 6 7 8 9 10 11 12 13 14 15 16 17 18 19 20 21 22 23 24 25 26 27 28 29 30 31 32 33 34 35 36 37 38 39 40 41 42 43 44 45 46 47 48 49 50
000
ASUS42 KMHX 281125
RWRMHX
WEATHER ROUNDUP FOR EASTERN NORTH CAROLINA
NATIONAL WEATHER SERVICE NEWPORT/MOREHEAD CITY NC
700 AM EDT FRI JUL 28 2017

NOTE: "FAIR" INDICATES FEW OR NO CLOUDS BELOW 12,000 FEET
WITH NO SIGNIFICANT WEATHER AND/OR OBSTRUCTIONS TO VISIBILITY

NCZ015>017-031-032-045>047-102-103-281200-
NORTH COAST

CITY           SKY/WX    TMP DP  RH WIND       PRES   REMARKS
EDENTON        LGT RAIN  78  75  90 SW12      29.88S
ELIZABETH CITY RAIN      74  73  97 S12       29.87F FOG
KITTY HAWK     CLOUDY    78  72  82 CALM      29.87R
MANTEO         MOCLDY    78  73  87 SW10      29.88S

$$

NCZ045>047-081-094-103-104-281200-
CENTRAL COAST

CITY           SKY/WX    TMP DP  RH WIND       PRES   REMARKS
FRISCO         CLOUDY    81  77  88 SW8       29.90R

$$

NCZ095-097-098-100-101-281200-
SOUTHERN COAST

CITY           SKY/WX    TMP DP  RH WIND       PRES   REMARKS
BEAUFORT       CLOUDY    80  77  90 W7        29.90S
CEDAR ISLAND   NOT AVBL
JACKSONVILLE   MOCLDY    75  75 100 SW5       29.90S
PINEY ISLAND   CLOUDY   N/A N/A N/A SW8       29.90S
WILMINGTON     CLOUDY    76  75  97 CALM      29.92R


$$

NCZ011>013-027>030-043-044-078>080-089-090>093-098-281200-
COASTAL PLAIN

CITY           SKY/WX    TMP DP  RH WIND       PRES   REMARKS
AHOSKIE        HVY RAIN  74  73  98 CALM      29.88R
CLINTON        CLOUDY    74  74 100 CALM      29.90S
ELIZABETHTOWN  NOT AVBL
GOLDSBORO      CLOUDY    75  75 100 SW6       29.88S
GREENVILLE     MOCLDY    77  73  88 SW6       29.90S
HAVELOCK       MOCLDY    76  73  91 SW6       29.91S
KENANSVILLE    CLOUDY    73  73 100 SW3       29.90S
KINSTON        CLOUDY    75  73  94 SW7       29.90S
NEW BERN       CLOUDY    75  75 100 SW6       29.90F
RICHLANDS      MOCLDY    73  73 100 SW6       29.91S FOG
ROCKY MOUNT    CLOUDY    75  74  96 SW5       29.87S
WASHINGTON     CLOUDY    76  73  90 SW6       29.88F
WHITEVILLE     CLOUDY    73  72  97 CALM      29.91S

$$

AMZ130-135-150-152-154-156-158-170-250-252-270-ANZ085-086-088-633-658-670-281200-
MARINE OBSERVATIONS

STATION/POSITION TIME  TEMP    WIND        PRES    WAVE   SWELL
                       AIR SEA DIR/SP/G            HT/PER HT/PER
                 (UTC) (F)     (DEG/KT/KT) (MB)    (FT/S) (FT/S)
CHESAPEAKE LIGHT NOT AVBL
64 E VA BEACH    1050   77 76  240/ 16/ 19 1012.1    4/ 5   2/ 8
DUCK             1100   77 62  270/ 10/ 15 1011.6
2 E DUCK         1100      68                N/A     2/ 8
OREGON INLET     1100   80 79  220/ 18/ 19 1011.5
13E OREGON INLT  1048      76                N/A     3/ 5   2/ 8
HATTERAS CG      1100   79 80  240/  8/ 11 1012.3
DIAMOND BUOY     1050   82 83  230/ 14/ 16 1012.3    3/ 3   2/ 7
CAPE LOOKOUT     1100   80     240/  7/ 10 1012.5
BEAUFORT LAB     1100   80 80  260/  4/ 10 1012.1
30 SE NEW RVR IN 1108   81 83  260/ 12/ 16 1013.1
30 SE NEW RVR IN 1043      83                N/A     3/ 4
27 SE WRIGHTSVLE 1108   81 83  230/  8/ 12 1012.9
5 SE WRIGHTSVLE  1108   80 81  270/ 10/ 14 1012.7
225 S CAPE HAT   1050   82 83  230/ 12/ 14 1014.3    2/ 7   2/ 7
41 SE CHARLESTON 1110   80 81  200/ 16/ 17 1012.3

$$




USA.gov is the U.S. government's official web portal to all federal, state and local government web resources and services.